Weather History for Kearney, NE

Change the Weather History Date:

Monday, May 27, 2013

  Actual Average Record
Temperature  
Mean Temperature 71 °F 63 °F  
Max Temperature 81 °F 75 °F 97 °F (2006)
Min Temperature 61 °F 52 °F 39 °F (1968)
Degree Days  
Heating Degree Days 0 4  
Month to date heating degree days 197  
Cooling Degree Days 6 2  
Growing Degree Days 20 (Base 50)    
Moisture  
Dew Point 62 °F    
Average Humidity 76    
Maximum Humidity 93    
Minimum Humidity 58    
Precipitation  
Precipitation 0.64 in - 3.67 in (1952)
Sea Level Pressure  
Sea Level Pressure 29.74 in    
Wind  
Wind Speed 15 mph (East)    
Max Wind Speed 25 mph    
Max Gust Speed 33 mph    
Visibility 10 miles    
Events Thunderstorm    
T = Trace of Precipitation, MM = Missing Value Source: NWS Daily Summary

Daily Weather History Graph

Daily Weather History Graph

Search for Another Location

Airport:

Trip Planner

Search our weather history database for the weather conditions in past years. The results will help you decide how hot, cold, wet, or windy it might be!

Date:

Astronomy

May. 27, 2013 Rise Set
Actual Time 6:09 AM CDT 8:57 PM CDT
Civil Twilight 5:37 AM CDT 9:29 PM CDT
Nautical Twilight 4:56 AM CDT 10:10 PM CDT
Astronomical Twilight 4:10 AM CDT 10:57 PM CDT
Moon 11:37 PM CDT (5/27) 8:48 AM CDT (5/27)
Length of Visible Light 15h 52m
Length of Day
14h 48m
Waning Gibbous, 91% of the Moon is Illuminated
May 27
Waning Gibbous
May 31
Last Quarter
Jun 8
New
Jun 16
First Quarter
Jun 23
Full

Hourly Weather History & Observations

Time (CDT) Temp. Heat Index Dew Point Humidity Pressure Visibility Wind Dir Wind Speed Gust Speed Precip Events Conditions
12:15 AM 73.4 °F - 66.2 °F 78% 29.75 in 10.0 mi South 24.2 mph 31.1 mph N/A   Clear
12:35 AM 73.4 °F - 66.2 °F 78% 29.75 in 10.0 mi South 18.4 mph 29.9 mph N/A   Clear
12:55 AM 71.6 °F - 66.2 °F 83% 29.76 in 10.0 mi South 19.6 mph 26.5 mph N/A   Clear
1:15 AM 71.6 °F - 66.2 °F 83% 29.77 in 10.0 mi South 15.0 mph 19.6 mph N/A   Clear
1:35 AM 71.6 °F - 66.2 °F 83% 29.81 in 10.0 mi NNE 11.5 mph - N/A   Mostly Cloudy
1:55 AM 73.4 °F - 66.2 °F 78% 29.80 in 10.0 mi ENE 5.8 mph - N/A   Overcast
2:15 AM 71.6 °F - 66.2 °F 83% 29.79 in 10.0 mi ESE 10.4 mph - N/A   Overcast
2:35 AM 71.6 °F - 66.2 °F 83% 29.79 in 10.0 mi East 12.7 mph - N/A   Overcast
2:55 AM 71.6 °F - 66.2 °F 83% 29.79 in 10.0 mi East 13.8 mph - N/A   Overcast
3:15 AM 68.0 °F - 64.4 °F 88% 29.79 in 10.0 mi East 16.1 mph 21.9 mph N/A   Overcast
3:35 AM 66.2 °F - 62.6 °F 88% 29.79 in 10.0 mi East 18.4 mph 21.9 mph N/A   Overcast
3:55 AM 64.4 °F - 60.8 °F 88% 29.80 in 10.0 mi ENE 15.0 mph - N/A   Overcast
4:15 AM 64.4 °F - 60.8 °F 88% 29.81 in 10.0 mi ENE 10.4 mph - N/A   Overcast
4:35 AM 64.4 °F - 60.8 °F 88% 29.80 in 10.0 mi East 12.7 mph - N/A   Overcast
4:55 AM 64.4 °F - 60.8 °F 88% 29.79 in 9.0 mi East 18.4 mph - N/A Thunderstorm Overcast
5:15 AM 62.6 °F - 59.0 °F 88% 29.78 in 10.0 mi East 17.3 mph - N/A   Partly Cloudy
5:35 AM 62.6 °F - 59.0 °F 88% 29.78 in 10.0 mi East 17.3 mph - N/A   Clear
5:55 AM 60.8 °F - 59.0 °F 94% 29.77 in 10.0 mi East 16.1 mph - N/A   Mostly Cloudy
6:15 AM 60.8 °F - 57.2 °F 88% 29.77 in 10.0 mi East 18.4 mph - N/A   Overcast
6:35 AM 60.8 °F - 57.2 °F 88% 29.76 in 10.0 mi East 21.9 mph 26.5 mph N/A   Overcast
6:55 AM 60.8 °F - 57.2 °F 88% 29.79 in 10.0 mi East 24.2 mph 27.6 mph N/A   Overcast
7:15 AM 60.8 °F - 57.2 °F 88% 29.79 in 10.0 mi East 27.6 mph 34.5 mph N/A   Overcast
7:35 AM 60.8 °F - 57.2 °F 88% 29.79 in 10.0 mi East 27.6 mph 34.5 mph N/A   Overcast
7:55 AM 60.8 °F - 55.4 °F 82% 29.79 in 10.0 mi East 25.3 mph 33.4 mph N/A   Overcast
8:15 AM 60.8 °F - 55.4 °F 82% 29.79 in 10.0 mi East 25.3 mph 33.4 mph N/A   Overcast
8:35 AM 60.8 °F - 57.2 °F 88% 29.79 in 10.0 mi ESE 20.7 mph 27.6 mph N/A   Overcast
8:55 AM 60.8 °F - 57.2 °F 88% 29.79 in 10.0 mi ESE 21.9 mph 25.3 mph N/A   Overcast
9:15 AM 62.6 °F - 57.2 °F 82% 29.76 in 10.0 mi ESE 23.0 mph 27.6 mph N/A   Overcast
9:35 AM 64.4 °F - 57.2 °F 77% 29.77 in 10.0 mi ESE 24.2 mph - N/A   Overcast
9:55 AM 64.4 °F - 57.2 °F 77% 29.78 in 10.0 mi ESE 19.6 mph 24.2 mph N/A   Overcast
10:15 AM 64.4 °F - 57.2 °F 77% 29.78 in 10.0 mi ESE 17.3 mph 24.2 mph N/A   Overcast
10:35 AM 66.2 °F - 57.2 °F 73% 29.80 in 10.0 mi ESE 12.7 mph 19.6 mph N/A   Overcast
10:55 AM 66.2 °F - 57.2 °F 73% 29.81 in 10.0 mi East 15.0 mph - N/A   Overcast
11:15 AM 66.2 °F - 57.2 °F 73% 29.81 in 10.0 mi East 12.7 mph - N/A   Overcast
11:35 AM 66.2 °F - 59.0 °F 78% 29.81 in 10.0 mi ESE 10.4 mph - N/A   Overcast
11:55 AM 69.8 °F - 60.8 °F 73% 29.79 in 10.0 mi ESE 11.5 mph - N/A   Overcast
12:15 PM 71.6 °F - 60.8 °F 69% 29.78 in 10.0 mi ESE 16.1 mph - N/A   Overcast
12:35 PM 73.4 °F - 60.8 °F 65% 29.77 in 10.0 mi SE 16.1 mph - N/A   Overcast
12:55 PM 73.4 °F - 60.8 °F 65% 29.76 in 10.0 mi ESE 16.1 mph 24.2 mph N/A   Overcast
1:15 PM 75.2 °F - 60.8 °F 61% 29.75 in 10.0 mi SE 21.9 mph - N/A   Overcast
1:35 PM 75.2 °F - 60.8 °F 61% 29.74 in 10.0 mi SE 21.9 mph 26.5 mph N/A   Overcast
1:55 PM 75.2 °F - 60.8 °F 61% 29.74 in 10.0 mi SE 20.7 mph 25.3 mph N/A   Overcast
2:15 PM 75.2 °F - 60.8 °F 61% 29.73 in 10.0 mi SE 19.6 mph 26.5 mph N/A   Overcast
2:35 PM 77.0 °F - 60.8 °F 57% 29.72 in 10.0 mi ESE 15.0 mph - N/A   Overcast
2:55 PM 75.2 °F - 60.8 °F 61% 29.72 in 10.0 mi SE 12.7 mph - N/A   Overcast
3:15 PM 75.2 °F - 60.8 °F 61% 29.71 in 10.0 mi ESE 13.8 mph - N/A   Overcast
3:35 PM 78.8 °F - 62.6 °F 57% 29.70 in 10.0 mi ESE 16.1 mph 19.6 mph N/A   Overcast
3:55 PM 78.8 °F - 62.6 °F 57% 29.69 in 10.0 mi ESE 12.7 mph - N/A   Overcast
4:15 PM 80.6 °F 82.3 °F 64.4 °F 58% 29.69 in 10.0 mi East 12.7 mph - N/A   Overcast
4:35 PM 78.8 °F - 62.6 °F 57% 29.68 in 10.0 mi East 12.7 mph 18.4 mph N/A   Mostly Cloudy
4:55 PM 77.0 °F - 62.6 °F 61% 29.67 in 10.0 mi East 11.5 mph - N/A   Mostly Cloudy
5:15 PM 77.0 °F - 62.6 °F 61% 29.64 in 10.0 mi ENE 16.1 mph - N/A   Overcast
5:35 PM 75.2 °F - 62.6 °F 65% 29.65 in 10.0 mi ENE 16.1 mph - N/A Thunderstorm Thunderstorm
5:55 PM 71.6 °F - 62.6 °F 73% 29.66 in 10.0 mi ENE 17.3 mph - N/A Thunderstorm Thunderstorm
6:15 PM 69.8 °F - 64.4 °F 83% 29.69 in 10.0 mi SE 11.5 mph - 0.06 in Thunderstorm Thunderstorm
6:35 PM 66.2 °F - 64.4 °F 94% 29.65 in 7.0 mi ENE 17.3 mph 25.3 mph 0.64 in Thunderstorm Thunderstorm
6:55 PM 66.2 °F - 62.6 °F 88% 29.64 in 10.0 mi ENE 13.8 mph 26.5 mph 0.64 in Thunderstorm Scattered Clouds
7:15 PM 66.2 °F - 64.4 °F 94% 29.66 in 10.0 mi NE 11.5 mph - N/A   Clear
7:35 PM 68.0 °F - 64.4 °F 88% 29.65 in 10.0 mi NE 13.8 mph - N/A   Scattered Clouds
7:55 PM 68.0 °F - 64.4 °F 88% 29.64 in 10.0 mi NE 17.3 mph - N/A   Mostly Cloudy
8:15 PM 68.0 °F - 64.4 °F 88% 29.64 in 10.0 mi NE 12.7 mph - N/A   Mostly Cloudy
8:35 PM 68.0 °F - 64.4 °F 88% 29.63 in 10.0 mi ENE 13.8 mph - N/A   Partly Cloudy
8:55 PM 66.2 °F - 64.4 °F 94% 29.63 in 10.0 mi East 13.8 mph - N/A   Scattered Clouds
9:15 PM 66.2 °F - 64.4 °F 94% 29.62 in 10.0 mi East 9.2 mph - N/A   Mostly Cloudy
9:35 PM 66.2 °F - 62.6 °F 88% 29.64 in 10.0 mi NNE 9.2 mph - N/A   Scattered Clouds
9:55 PM 66.2 °F - 62.6 °F 88% 29.69 in 10.0 mi North 6.9 mph - N/A   Clear
10:15 PM 66.2 °F - 64.4 °F 94% 29.71 in 10.0 mi NNW 4.6 mph - N/A   Mostly Cloudy
10:35 PM 64.4 °F - 62.6 °F 94% 29.73 in 10.0 mi NNE 10.4 mph - N/A   Mostly Cloudy
10:55 PM 64.4 °F - 62.6 °F 94% 29.73 in 10.0 mi NNE 8.1 mph - N/A   Partly Cloudy
11:15 PM 64.4 °F - 62.6 °F 94% 29.71 in 10.0 mi NE 3.5 mph - N/A   Mostly Cloudy
11:35 PM 64.4 °F - 62.6 °F 94% 29.72 in 10.0 mi North 8.1 mph - N/A   Partly Cloudy
11:55 PM 64.4 °F - 62.6 °F 94% 29.70 in 10.0 mi ENE 8.1 mph - N/A   Clear